FW1310 Weather Reports


time (UTC)temp
F
wind
direction
speed
knots
gust
knots
rain 1hr
in
rain 24hr
in
rain mn
in
humidity
%
barometer
mb
20260904200003 94 168 3.5 7.0 0.00 0.01 0.01 54 997.5
20260904195003 94 184 5.2 7.8 0.00 0.01 0.01 57 997.6
20260904194503 94 146 1.7 5.2 0.00 0.01 0.01 55 997.6
20260904193503 92 117 0.9 7.0 0.00 0.01 0.01 54 997.6
20260904193003 92 159 3.5 7.0 0.00 0.01 0.01 57 997.7
20260904192504 93 154 2.6 6.1 0.00 0.01 0.01 55 997.8
20260904191503 92 174 4.3 7.8 0.00 0.01 0.01 56 997.9
20260904191003 91 138 4.3 7.8 0.00 0.01 0.01 57 998.2
20260904190503 91 165 6.1 7.8 0.00 0.01 0.01 57 998.1
20260904190003 92 195 4.3 7.8 0.00 0.01 0.01 58 998.2
20260904185503 92 114 0.9 7.8 0.00 0.01 0.01 59 998.1
20260904185003 93 256 6.1 8.7 0.00 0.01 0.01 57 998.3
20260904184503 94 331 2.6 6.1 0.00 0.01 0.01 55 998.2
20260904184004 93 214 6.1 13.9 0.00 0.01 0.01 57 998.2
20260904183503 93 177 1.7 7.0 0.00 0.01 0.01 60 998.4
20260904183003 92 118 3.5 7.8 0.00 0.01 0.01 60 998.4
20260904182502 92 137 2.6 7.8 0.00 0.01 0.01 60 998.3
20260904182003 92 86 3.5 12.2 0.00 0.01 0.01 61 998.3
20260904181503 91 151 4.3 7.0 0.00 0.01 0.01 61 998.4
20260904181003 92 75 4.3 7.0 0.00 0.01 0.01 60 998.2
20260904180503 92 183 3.5 8.7 0.00 0.01 0.01 61 998.4
20260904180003 91 171 3.5 10.4 0.00 0.01 0.01 58 998.4
20260904175003 90 174 3.5 10.4 0.00 0.01 0.01 60 998.4
20260904174502 91 191 2.6 5.2 0.00 0.01 0.01 60 998.7
20260904174003 92 259 1.7 4.3 0.00 0.01 0.01 57 998.6
20260904173503 91 175 1.7 7.8 0.00 0.01 0.01 58 998.8
20260904173003 91 231 2.6 6.1 0.00 0.01 0.01 58 998.7
20260904172503 91 160 4.3 7.0 0.00 0.01 0.01 60 998.8
20260904172003 90 198 4.3 8.7 0.00 0.01 0.01 61 999.0
20260904171003 91 185 5.2 7.0 0.00 0.01 0.01 61 999.0
20260904170502 90 181 2.6 6.1 0.00 0.01 0.01 61 998.8
20260904170003 89 163 1.7 7.0 0.00 0.01 0.01 64 998.9
20260904165503 90 268 4.3 6.1 0.00 0.01 0.01 62 999.2
20260904165003 89 155 3.5 6.1 0.00 0.01 0.01 62 999.0
20260904164003 89 236 1.7 7.0 0.00 0.01 0.01 66 998.8
20260904163503 89 194 1.7 6.1 0.00 0.01 0.01 68 998.8
20260904162003 87 319 2.6 7.0 0.00 0.01 0.01 72 998.9
20260904161503 87 218 3.5 7.0 0.00 0.01 0.01 73 999.0
20260904161003 87 261 2.6 7.0 0.00 0.01 0.01 73 998.9
20260904160503 86 213 3.5 6.1 0.00 0.01 0.01 74 999.0
20260904160003 86 184 2.6 7.0 0.00 0.01 0.01 75 999.0
20260904155503 85 282 3.5 7.0 0.00 0.01 0.01 76 999.0
20260904154503 85 250 2.6 6.1 0.00 0.01 0.01 77 998.9
20260904154003 86 166 2.6 5.2 0.00 0.01 0.01 77 998.9
20260904153503 85 259 1.7 6.1 0.00 0.01 0.01 79 998.9
20260904153003 84 270 2.6 4.3 0.00 0.01 0.01 81 999.0
20260904152503 83 2 2.6 7.0 0.00 0.01 0.01 83 998.9
20260904152003 83 272 3.5 7.0 0.00 0.01 0.01 84 998.9
20260904151503 83 286 1.7 4.3 0.00 0.01 0.01 85 998.9
20260904151003 82 100 1.7 7.0 0.00 0.01 0.01 86 998.9
20260904150503 82 319 3.5 7.0 0.00 0.01 0.01 86 998.8
20260904150003 81 262 2.6 6.1 0.00 0.01 0.01 87 998.6
20260904145004 80 255 2.6 7.0 0.00 0.01 0.01 90 998.6
20260904144502 80 245 5.2 7.8 0.00 0.01 0.01 90 998.5
20260904144003 79 268 4.3 8.7 0.00 0.01 0.01 91 998.7
20260904143503 79 218 2.6 5.2 0.00 0.01 0.01 92 998.6
20260904143003 79 289 3.5 7.8 0.00 0.01 0.01 93 998.6
20260904142503 79 209 3.5 6.1 0.00 0.01 0.01 93 998.6
20260904142004 79 238 2.6 6.1 0.00 0.01 0.01 93 998.5
20260904141503 79 271 2.6 7.0 0.00 0.01 0.01 94 998.6
20260904141003 78 270 3.5 7.0 0.00 0.01 0.01 94 998.6
20260904140503 78 190 1.7 6.1 0.00 0.01 0.01 95 998.5
20260904135503 78 258 2.6 5.2 0.01 0.01 0.01 95 998.5
20260904135003 78 261 2.6 5.2 0.01 0.01 0.01 95 998.5
20260904134503 78 252 2.6 5.2 0.01 0.01 0.01 95 998.5
20260904134003 78 180 1.7 2.6 0.01 0.01 0.01 95 998.5
20260904133003 78 262 1.7 5.2 0.01 0.01 0.01 95 998.4
20260904132503 78 219 2.6 4.3 0.01 0.01 0.01 95 998.4
20260904132003 78 238 1.7 2.6 0.01 0.01 0.01 95 998.6
20260904131503 78 162 0.9 1.7 0.01 0.01 0.01 95 998.8
20260904131002 78 141 0.9 1.7 0.01 0.01 0.01 94 998.5
20260904130503 78 172 0.9 2.6 0.01 0.01 0.01 94 998.7
20260904130003 78 151 1.7 4.3 0.01 0.01 0.01 94 998.5
20260904125504 78 174 2.6 4.3 0.00 0.00 0.00 93 998.6
20260904124502 78 151 0.9 4.3 0.00 0.00 0.00 92 998.7
20260904123003 79 129 0.9 1.7 0.00 0.00 0.00 92 998.5
20260904122003 79 148 1.7 2.6 0.00 0.00 0.00 92 998.4
20260904121503 79 188 1.7 2.6 0.00 0.00 0.00 91 998.2
20260904121003 79 117 0.9 2.6 0.00 0.00 0.00 91 998.1
20260904120503 79 179 2.6 2.6 0.00 0.00 0.00 91 998.0
20260904120003 79 144 4.3 6.1 0.00 0.00 0.00 91 997.9
20260904115502 78 161 2.6 7.8 0.00 0.00 0.00 92 997.8
20260904115004 78 189 2.6 6.1 0.00 0.00 0.00 92 997.7
20260904114003 78 183 4.3 6.1 0.00 0.00 0.00 92 997.5
20260904113503 78 162 2.6 5.2 0.00 0.00 0.00 92 997.4
20260904113003 78 155 2.6 4.3 0.00 0.00 0.00 92 997.3
20260904112002 78 164 3.5 5.2 0.00 0.00 0.00 92 997.2
20260904111503 78 165 1.7 5.2 0.00 0.00 0.00 91 997.2
20260904111003 78 194 4.3 6.1 0.00 0.00 0.00 91 997.1
20260904110503 78 179 5.2 7.0 0.00 0.00 0.00 91 997.1
20260904110003 78 204 4.3 7.0 0.00 0.00 0.00 91 997.0
20260904105503 78 167 4.3 6.1 0.00 0.00 0.00 91 997.1
20260904105002 78 166 3.5 7.8 0.00 0.00 0.00 91 997.0
20260904104502 78 165 4.3 10.4 0.00 0.00 0.00 91 997.2
20260904104003 78 169 5.2 6.1 0.00 0.00 0.00 91 996.9
20260904103503 79 200 3.5 7.8 0.00 0.00 0.00 91 997.0
20260904103003 79 153 4.3 6.1 0.00 0.00 0.00 91 997.0
20260904102503 79 171 2.6 4.3 0.00 0.00 0.00 90 997.0
20260904102003 79 174 2.6 7.0 0.00 0.00 0.00 90 996.9
20260904101003 79 180 2.6 6.1 0.00 0.00 0.00 90 996.8
20260904100503 79 219 3.5 6.1 0.00 0.00 0.00 89 996.8
20260904100003 79 164 3.5 5.2 0.00 0.00 0.00 89 996.8
20260904095503 79 146 2.6 6.1 0.00 0.00 0.00 89 996.8
20260904095003 79 179 2.6 5.2 0.00 0.00 0.00 89 996.7
20260904094503 79 161 2.6 6.1 0.00 0.00 0.00 89 996.7
20260904094003 79 199 2.6 4.3 0.00 0.00 0.00 89 996.6
20260904093503 79 174 2.6 4.3 0.00 0.00 0.00 89 996.6
20260904093003 79 145 2.6 5.2 0.00 0.00 0.00 88 996.5
20260904092502 79 151 3.5 5.2 0.00 0.00 0.00 88 996.6
20260904092002 79 181 2.6 6.1 0.00 0.00 0.00 88 996.7
20260904091503 79 164 4.3 7.0 0.00 0.00 0.00 88 996.7
20260904091003 79 156 4.3 7.0 0.00 0.00 0.00 88 996.7
20260904090503 79 158 2.6 5.2 0.00 0.00 0.00 88 996.7
20260904090003 79 283 1.7 5.2 0.00 0.00 0.00 88 996.8
20260904085503 79 180 3.5 6.1 0.00 0.00 0.00 87 996.8
20260904085003 79 258 2.6 7.0 0.00 0.00 0.00 87 996.8
20260904084003 79 194 2.6 6.1 0.00 0.00 0.00 87 996.7
20260904083503 79 195 3.5 7.0 0.00 0.00 0.00 87 996.6
20260904082503 79 151 5.2 7.0 0.00 0.00 0.00 88 996.8
20260904082003 79 126 3.5 6.1 0.00 0.00 0.00 88 996.8
20260904081503 79 246 2.6 5.2 0.00 0.00 0.00 88 996.9
20260904081004 79 238 3.5 7.8 0.00 0.00 0.00 88 996.9
20260904080003 79 157 4.3 7.8 0.00 0.00 0.00 88 996.9
20260904075503 79 153 2.6 7.0 0.00 0.00 0.00 88 996.9
20260904075003 79 275 2.6 7.0 0.00 0.00 0.00 88 996.8
20260904074503 79 194 3.5 6.1 0.00 0.00 0.00 88 996.8
20260904074003 80 226 5.2 10.4 0.00 0.00 0.00 88 996.7
20260904073503 80 191 4.3 10.4 0.00 0.00 0.00 88 996.7
20260904073003 80 179 6.1 10.4 0.00 0.00 0.00 88 996.9
20260904072503 80 179 6.1 10.4 0.00 0.00 0.00 87 996.9
20260904072003 80 223 4.3 10.4 0.00 0.00 0.00 87 997.0
20260904071503 80 172 4.3 10.4 0.00 0.00 0.00 87 997.1
20260904071003 80 150 3.5 12.2 0.00 0.00 0.00 87 997.1
20260904070003 80 193 3.5 6.1 0.00 0.00 0.00 86 997.0
20260904065503 80 209 4.3 7.0 0.00 0.00 0.00 86 997.1
20260904065003 80 180 2.6 8.7 0.00 0.00 0.00 86 997.1
20260904063503 80 165 5.2 10.4 0.00 0.00 0.00 85 997.2
20260904063003 80 189 6.1 10.4 0.00 0.00 0.00 85 997.2
20260904062503 80 202 5.2 10.4 0.00 0.00 0.00 85 997.1
20260904062003 80 192 2.6 8.7 0.00 0.00 0.00 85 997.1
20260904060503 80 159 2.6 7.0 0.00 0.00 0.00 85 996.9
20260904060004 80 162 4.3 8.7 0.00 0.00 0.00 85 997.2
20260904055503 80 174 5.2 7.8 0.00 0.00 0.00 85 997.0
20260904055003 80 181 4.3 8.7 0.00 0.00 0.00 85 997.0
20260904054503 80 183 5.2 7.0 0.00 0.00 0.00 85 997.0
20260904053503 80 206 5.2 11.3 0.00 0.00 0.00 85 997.1
20260904053003 80 172 6.1 11.3 0.00 0.00 0.00 85 997.0
20260904052503 80 186 3.5 7.8 0.00 0.00 0.00 85 996.9
20260904051503 80 211 5.2 7.8 0.00 0.00 0.00 85 996.8
20260904051003 80 172 3.5 7.0 0.00 0.00 0.00 85 996.8
20260904050503 80 168 4.3 7.0 0.00 0.00 0.00 85 996.8
20260904050003 80 156 4.3 7.8 0.00 0.00 0.00 84 996.9
20260904045503 80 173 5.2 11.3 0.00 0.00 0.00 84 996.7
20260904045003 80 176 4.3 7.8 0.00 0.00 0.00 84 996.9
20260904044503 80 126 5.2 7.8 0.00 0.00 0.00 84 996.9
20260904044002 80 186 5.2 7.8 0.00 0.00 0.00 84 996.7
20260904043503 80 162 5.2 7.8 0.00 0.00 0.00 83 996.9
20260904043003 80 168 3.5 7.8 0.00 0.00 0.00 83 996.8
20260904042503 80 157 5.2 11.3 0.00 0.00 0.00 83 996.8
20260904042003 80 191 4.3 11.3 0.00 0.00 0.00 83 996.8
20260904041503 80 156 3.5 5.2 0.00 0.00 0.00 83 996.7
20260904041003 80 177 1.7 10.4 0.00 0.00 0.00 83 996.7
20260904040503 80 180 3.5 7.0 0.00 0.00 0.00 82 996.7
20260904035503 80 196 4.3 8.7 0.00 0.00 0.00 82 996.9
20260904035003 80 220 6.1 7.8 0.00 0.00 0.00 82 996.6
20260904034503 80 201 4.3 8.7 0.00 0.00 0.00 81 996.7
20260904034003 80 144 3.5 10.4 0.00 0.00 0.00 81 996.8
20260904033503 81 151 4.3 11.3 0.00 0.00 0.00 81 996.8
20260904033003 81 146 6.1 11.3 0.00 0.00 0.00 80 996.8
20260904032503 81 202 4.3 10.4 0.00 0.00 0.00 80 996.8
20260904032003 81 200 4.3 10.4 0.00 0.00 0.00 80 996.5
20260904031503 81 169 5.2 10.4 0.00 0.00 0.00 79 996.6
20260904031003 81 173 5.2 11.3 0.00 0.00 0.00 79 996.6
20260904030003 81 130 3.5 10.4 0.00 0.00 0.00 77 996.5
20260904025503 82 201 6.1 13.0 0.00 0.00 0.00 77 996.5
20260904025003 82 185 4.3 7.0 0.00 0.00 0.00 76 996.6
20260904024503 82 158 2.6 6.1 0.00 0.00 0.00 76 996.3
20260904024003 82 128 3.5 6.1 0.00 0.00 0.00 76 996.4
20260904023503 82 193 2.6 6.1 0.00 0.00 0.00 75 996.3
20260904023003 82 175 2.6 5.2 0.00 0.00 0.00 75 996.2
20260904022503 82 139 2.6 7.0 0.00 0.00 0.00 75 996.2
20260904022003 82 150 2.6 7.0 0.00 0.00 0.00 75 996.1
20260904021503 82 141 4.3 7.0 0.00 0.00 0.00 74 996.1
20260904021003 82 52 2.6 5.2 0.00 0.00 0.00 74 996.2
20260904020004 83 16 2.6 10.4 0.00 0.00 0.00 74 996.0
20260904015503 83 202 4.3 7.8 0.00 0.00 0.00 73 995.9
20260904015004 83 179 3.5 7.0 0.00 0.00 0.00 73 995.7
20260904014504 83 175 3.5 7.8 0.00 0.00 0.00 73 995.7
20260904013004 83 182 1.7 6.1 0.00 0.00 0.00 72 995.7
20260904011503 84 86 2.6 4.3 0.00 0.00 0.00 72 995.6
20260904011003 84 107 2.6 4.3 0.00 0.00 0.00 72 995.6
20260904010503 84 143 2.6 7.0 0.00 0.00 0.00 71 995.5
20260904010004 85 142 1.7 6.1 0.00 0.00 0.00 71 995.3
20260904005504 85 173 3.5 6.1 0.00 0.00 0.00 71 995.4
20260904004503 85 146 2.6 7.0 0.00 0.00 0.00 70 995.3
20260904004004 86 182 2.6 7.0 0.00 0.00 0.00 69 995.4
20260904003503 86 152 2.6 7.0 0.00 0.00 0.00 69 995.2
20260904003003 86 152 5.2 8.7 0.00 0.00 0.00 68 995.2
20260904002503 86 153 2.6 7.8 0.00 0.00 0.00 68 995.1
20260904002003 87 198 4.3 7.8 0.00 0.00 0.00 68 995.2
20260904001504 87 171 3.5 7.8 0.00 0.00 0.00 67 995.3
20260904001003 87 235 4.3 13.9 0.00 0.00 0.00 67 995.4
20260904000003 87 184 2.6 6.1 0.00 0.00 0.00 68 995.2
20260903235503 87 178 4.3 7.8 0.00 0.00 0.00 68 995.2
20260903235003 88 126 5.2 10.4 0.00 0.00 0.00 68 995.1
20260903234003 89 170 4.3 7.8 0.00 0.00 0.00 66 995.1
20260903233503 89 185 5.2 14.8 0.00 0.00 0.00 66 994.9
20260903233004 90 116 4.3 7.8 0.00 0.00 0.00 65 995.1
20260903232503 90 209 4.3 11.3 0.00 0.00 0.00 65 994.8
20260903232004 91 71 4.3 7.8 0.00 0.00 0.00 65 994.9
20260903231503 91 176 4.3 12.2 0.00 0.00 0.00 66 994.6
20260903231003 92 189 4.3 7.8 0.00 0.00 0.00 64 994.6
20260903230503 92 156 7.0 10.4 0.00 0.00 0.00 63 994.8
20260903230004 93 32 5.2 10.4 0.00 0.00 0.00 62 994.5
20260903225003 93 162 5.2 8.7 0.00 0.00 0.00 62 994.6
20260903224503 93 201 5.2 12.2 0.00 0.00 0.00 61 994.5
20260903223503 93 73 5.2 7.8 0.00 0.00 0.00 60 994.5
20260903223004 94 68 4.3 7.8 0.00 0.00 0.00 60 994.6
20260903222503 94 200 3.5 7.8 0.00 0.00 0.00 58 994.6
20260903222003 95 223 3.5 8.7 0.00 0.00 0.00 55 994.5
20260903221504 95 134 5.2 8.7 0.00 0.00 0.00 55 994.4
20260903221004 95 185 4.3 11.3 0.00 0.00 0.00 55 994.2
20260903220505 95 150 2.6 6.1 0.00 0.00 0.00 55 994.4
20260903220003 94 125 5.2 8.7 0.00 0.00 0.00 56 994.4
20260903215503 94 156 5.2 11.3 0.00 0.00 0.00 56 994.3
20260903215003 95 259 5.2 8.7 0.00 0.00 0.00 54 994.4
20260903214503 96 153 2.6 8.7 0.00 0.00 0.00 54 994.3
20260903214003 97 118 3.5 8.7 0.00 0.00 0.00 53 994.4
20260903213504 97 170 4.3 7.0 0.00 0.00 0.00 52 994.5
20260903213003 96 148 2.6 4.3 0.00 0.00 0.00 53 994.4
20260903212503 96 96 3.5 10.4 0.00 0.00 0.00 54 994.6
20260903212003 96 190 3.5 7.0 0.00 0.00 0.00 54 994.7
20260903211503 97 237 1.7 7.8 0.00 0.00 0.00 53 994.7
20260903211004 96 208 2.6 7.0 0.00 0.00 0.00 54 994.7
20260903210503 96 156 3.5 7.8 0.00 0.00 0.00 53 994.8
20260903210003 97 159 3.5 7.0 0.00 0.00 0.00 53 994.8
20260903205504 97 89 1.7 5.2 0.00 0.00 0.00 52 994.6
20260903204503 97 121 3.5 7.8 0.00 0.00 0.00 51 995.0
20260903204004 98 202 2.6 7.8 0.00 0.00 0.00 50 995.0
20260903203503 98 79 1.7 7.0 0.00 0.00 0.00 50 995.1
20260903202503 98 139 1.7 5.2 0.00 0.00 0.00 49 995.4
20260903202003 97 142 2.6 6.1 0.00 0.00 0.00 50 995.4
20260903201504 97 164 1.7 7.0 0.00 0.00 0.00 51 995.5
20260903201004 97 110 2.6 4.3 0.00 0.00 0.00 51 995.5
20260903200503 98 119 1.7 7.0 0.00 0.00 0.00 50 995.5